www.pogodaiklimat.ru

Погода и климат >> Архив погоды >> Россия >> Камчатский край >> Мыс Африка


ПОГОДА на Мысе Африка

  • Прогноз погоды на Мысе Африка
  • Монитор погоды на Мысе Африка

АРХИВ ПОГОДЫ на Мысе Африка

Время (UTC), дата Ветер
(напр.,м/с)
 
Видим.   Явления Облачность Т
(С)
Тd
(С)
f
(%)
Тe
(С)
Тes
(С)
Комфортность P
(гПа)
Po
(гПа)
Тmin
(С)
Tmax
(С)
R
(мм)
R24
(мм)
S
(см)
09 17.04 ЮЗ 1 4000 м дымка 10/10 300 м
[Sc]
0.0 -1.7 88 -2 -2 1023.1 1021.3 +0.3
12 17.04 З 1 20 км 10/10 300 м
[Sc]
-0.3 -2.5 85 -2 -2 1024.5 1022.7
15 17.04 ЮЗ 1 20 км 10/10 300 м
[Sc]
-0.8 -3.5 82 -3 -3 1024.5 1022.7
18 17.04 З 1 20 км 10/10 600 м
[Sc]
-0.4 -3.8 78 -2 -2 1024.5 1022.7
21 17.04 штиль 0 20 км 10/10 600 м
[Sc]
+0.4 -3.2 77 -1 -1 1025.8 1024.0 -1.1 67
00 18.04 ЮЗ 2 20 км 10/10 600 м
[Sc]
+0.7 -3.0 76 -3 -3 1025.8 1024.0
03 18.04 ЮЗ 2 20 км 10/10 600 м
[Sc]
-0.2 -2.4 85 -4 -4 1025.8 1024.0
06 18.04 ЮЗ 3 20 км 9/9 600 м
[Sc]
-0.8 -2.1 91 -6 -6 1025.8 1024.0
09 18.04 ЮЗ 4 4000 м дымка 8/8 600 м
[Sc]
-1.5 -3.1 89 -7 -7 1027.1 1025.3 +0.8
12 18.04 З 5 20 км 4/3 600 м
[Sc Ci fib]
-1.0 -4.0 80 -7 -7 1027.1 1025.3
15 18.04 ЮЗ 4 20 км 10/0
[Cs]
-3.6 -5.3 88 -10 -10 1027.1 1025.3
18 18.04 ЮЗ 6 20 км 10/0
[Cs]
-1.3 -3.5 85 -8 -8 1025.7 1024.0
21 18.04 ЮЗ 6 20 км 10/0
[Cs]
0.0 -2.5 83 -7 -5 1026.4 1024.7 -3.7 66
00 19.04 ЮЗ 5 20 км 6/0
[Ci]
-0.3 -2.0 88 -7 -1 1026.5 1024.8
03 19.04 ЮЗ 5 20 км 8/0
[Ci]
0.0 -1.9 87 -6 -5 1027.1 1025.3
06 19.04 ЮЗ 4 20 км 8/0
[Ci]
-0.6 -2.2 89 -6 -6 1027.1 1025.3
09 19.04 ЮЗ 4 4000 м дымка 6/3 600 м
[Sc Ci fib]
-2.0 -2.8 94 -8 -8 1027.1 1025.3 +0.2
12 19.04 ЮЗ 4 2000 м дымка 10/0
[Cs]
-2.6 -3.2 96 -9 -9 1026.3 1024.5
15 19.04 ЮЗ 2 2000 м дымка 10/0
[Cs]
-2.9 -3.6 95 -7 -7 1027.1 1025.3
18 19.04 ЮЗ 1 4000 м дымка 6/3 600 м
[Sc Ci fib]
-2.6 -4.0 90 -5 -5 1027.1 1025.3
21 19.04 З 1 20 км 8/3 600 м
[Sc Ci fib]
-0.6 -2.8 85 -3 0 1026.6 1024.9 -3.2 65
00 20.04 ЮЗ 3 4000 м дымка 4/0
[Ci fib]
+0.1 -1.0 92 -5 +4 1026.2 1024.5
03 20.04 ЮЗ 4 4000 м дымка 8/0
[Ci]
+0.7 -1.1 88 -5 -3 1027.1 1025.3
06 20.04 ЮЗ 5 4000 м дымка 6/0
[Ci fib]
-0.1 -0.9 94 -6 -6 1025.8 1024.0
09 20.04 ЮЗ 4 2000 м дымка 3/0
[Ci fib]
-1.0 -1.6 96 -7 -7 1025.8 1024.0 +1.1
12 20.04 ЮЗ 3 20 км 4/0
[Ci fib]
-0.9 -2.8 87 -6 -6 1024.5 1022.7
15 20.04 ЮЗ 2 2000 м дымка 3/0
[Ci fib]
-2.1 -2.7 96 -6 -6 1023.1 1021.3
18 20.04 С 1 2000 м дымка 3/0
[Ci fib]
-2.7 -3.1 97 -5 -5 1023.1 1021.3
21 20.04 С 4 4000 м дымка 8/0
[Ci]
+0.5 -1.6 86 -5 -2 1022.7 1021.0 -3.1 64
00 21.04 С 5 20 км 10/0
[Cc]
+2.4 -2.0 73 -3 +2 1023.1 1021.4
03 21.04 С 7 20 км 3/0
[Ci fib]
+2.3 -2.4 71 -4 -2 1024.5 1022.7
06 21.04 С 7 20 км 3/1 600 м
[Sc Ci fib]
+1.5 -2.3 76 -5 -4 1024.5 1022.7
09 21.04 С 6
{11}
4000 м дымка 10/10 300 м
[Sc]
+0.8 -0.5 91 -6 -6 1025.8 1024.0 +2.7
12 21.04 СВ 4 4000 м дымка 10/10 300 м
[Sc]
+0.3 -0.9 92 -5 -5 1024.8 1023.1
15 21.04 С 4 4000 м дымка 10/10 300 м
[Sc]
-0.1 -1.1 93 -6 -6 1025.8 1024.0
18 21.04 С 3 4000 м дымка 10/10 300 м
[Sc]
+0.2 -1.5 88 -4 -4 1025.8 1024.0
21 21.04 С 3 20 км 9/9 300 м
[Sc]
+1.1 -1.5 83 -3 -3 1024.6 1022.9 -0.3 60
00 22.04 С 3 20 км 8/6 600 м
[Sc Ac trans]
+1.5 -1.2 82 -3 -0 1024.4 1022.7
03 22.04 С 2 20 км 10/10 600 м
[Sc]
+1.5 -1.4 81 -2 -2 1024.5 1022.7
06 22.04 С 2 20 км 10/10 300 м
[Sc]
+0.9 -1.3 85 -3 -3 1024.5 1022.7
09 22.04 штиль 0 4000 м дымка 10/10 300 м
[Sc]
+0.3 -1.1 90 -1 -1 1023.1 1021.3 +2.2
12 22.04 З 1 4000 м слаб. ливневой снег 10/10 300 м
[Cb cap]
-0.1 -1.0 94 -2 -2 1022.0 1020.3
15 22.04 ЮЗ 3 4000 м слаб. ливневой снег 10/10 300 м
[Cb cap]
-0.9 -1.5 96 -6 -6 1021.8 1020.0
18 22.04 З 2 4000 м слаб. ливневой снег 10/10 300 м
[Cb cap]
-1.1 -1.5 97 -5 -5 1020.8 1019.1
21 22.04 С 2 4000 м дымка {ливн. осадки} 10/10 300 м
[St]
-0.5 -1.9 90 -4 -4 1020.9 1019.2 -1.2 0.7 59
00 23.04 Ю 2 4000 м дымка {ливн. осадки} 10/10 300 м
[St]
-0.4 -2.0 89 -4 -4 1020.6 1018.9
03 23.04 ЮЗ 4 20 км 10/10 300 м
[Sc]
-0.4 -2.5 86 -6 -6 1021.8 1020.0
06 23.04 ЮЗ 3 20 км 10/10 300 м
[Sc]
-0.2 -2.3 86 -5 -5 1020.5 1018.7
09 23.04 ЮЗ 2 4000 м дымка 10/10 300 м
[Sc]
-0.8 -2.1 91 -5 -5 1020.5 1018.7 -0.1
12 23.04 ЮЗ 2 20 км 10 баллов -0.5 -2.5 86 -4 -4 1020.5 1018.7
15 23.04 ЮЗ 3 20 км 10/10 300 м
[Sc]
-0.6 -2.5 87 -5 -5 1020.5 1018.7
18 23.04 ЮЗ 2 20 км 10 баллов -0.5 -1.6 92 -4 -4 1020.5 1018.7
21 23.04 ЮЗ 3 2000 м дымка 10/10 300 м
[Sc]
-0.3 -1.0 95 -5 -5 1019.5 1017.8 -0.9 58
00 24.04 Ю 2 4000 м слаб. ливневой снег 10/10 300 м
[Cb cap]
-0.1 -0.9 94 -4 -4 1020.5 1018.7
03 24.04 ЮЗ 3 2000 м дымка 10 баллов +0.3 -0.4 95 -5 -5 1020.5 1018.7
06 24.04 ЮЗ 4 2000 м дымка 10 баллов +0.3 -0.3 96 -5 -5 1020.5 1018.7

 

Местоположение метеостанции Мыс Африка (Камчатский край, Россия): широта 56.18 долгота 163.30 высота над уровнем моря 14 м.

В архиве по умолчанию представлена погода на Мысе Африка за последнюю неделю. Архивные данные за месяц целиком и за предыдущие месяцы, начиная с января 2011 года, Вы можете получить, выбрав интересующий диапазон дат из раскрывающегося списка и нажав кнопку "Ввод!".


*Определитесь, кто Вы:
робот инопланетянин человек

Внимание! Время в таблицах - всемирное. Для получения местного времени необходимо прибавить поправку, которая равна 12 ч.

Смотрите также архив погоды в соседних городах и на ближайших метеорологических станциях:

Погода в Усть-Камчатске (Камчатский край, Россия) (37 км)
Погода в Ключах (Камчатский край, Россия) (155 км)
Погода на Мысе Озерном (Камчатский край, Россия) (164 км)
Погода на Острове Беринга (Камчатский край, Россия) (196 км)
Погода в Козыревске (Камчатский край, Россия) (217 км)
Погода в Эссо (Камчатский край, Россия) (287 км)
Погода в Долиновке (Камчатский край, Россия) (294 км)
Погода в Семячике (Камчатский край, Россия) (315 км)
Погода в Тигиле (Камчатский край, Россия) (334 км)
Погода в Оссоре (Камчатский край, Россия) (340 км)

Пояснения к столбцам:

Ветер - указаны скорость ветра в м/с - средняя за 10 мин, порывы в срок и между сроками (в фигурных скобках) и направление, откуда дует ветер: С - северный, СВ - северо-восточный, В - восточный, ЮВ - юго-восточный, Ю - южный, ЮЗ - юго-западный, З - западный, СЗ - северо-западный.
Видимость - горизонтальная дальность видимости в метрах или километрах. При видимости от 1 до 10 км при отсутствии осадков обычно наблюдается дымка, при ухудшении видимости до 1 км и менее - туман. В сухую погоду видимость может ухудшаться дымом, пылью или мглою.
Явления - указаны атмосферные явления, наблюдавшиеся в срок или в последний час перед сроком; фигурными скобками обозначены явления, наблюдавшиеся между сроками (за 1-3 часа до срока); квадратными скобками обозначены град или гололедные отложения с указанием их диаметра в мм.
Облачность - указаны через наклонную черту общая и нижняя облачность в баллах и высота нижней границы облаков в метрах; квадратными скобками обозначены формы облаков: Ci - перистые, Cs - перисто-слоистые, Cc - перисто-кучевые, Ac - высококучевые, As - высокослоистые, Sc - слоисто-кучевые, Ns - слоисто-дождевые, Cu - кучевые, Cb - кучево-дождевые. Подробнее классификацию облаков см. в Атласе облаков (PDF).
T - Температура воздуха - температура, измеренная на высоте 2 м над землей.
Td - Температура точки росы - температура, при понижении до которой содержащийся в воздухе водяной пар достигнет насыщения.
f - Относительная влажность воздуха - влажноcть воздуха, измеренная на высоте 2 м над землей.
Te - Эффективная температура - температура, которую ощущает одетый по сезону человек в тени. Характеристика душности погоды. При расчете учитывается влияние влажности воздуха и скорости ветра на теплоощущения человека.
Tes - Эффективная температура на солнце - температура, которую ощущает человек, с поправкой на солнечный нагрев. Характеристика знойности погоды. Зависит от высоты солнца над горизонтом, облачности и скорости ветра. Ночью, в пасмурную погоду, а также при ветре 12 м/с и более поправка равна нулю.
P - Атмосферное давление - приведенное к уровню моря атмосферное давление.
Po - Атмосферное давление - измеренное на уровне метеостанции атмосферное давление.
Tmin - Минимальная температура - минимум температуры воздуха на высоте 2 м над землей.
Tmax - Максимальная температура - максимум температуры воздуха на высоте 2 м над землей.
R - Количество осадков - Количество выпавших осадков за период времени, мм. При наведении курсора мыши на число - период времени, за который выпало указанное количество осадков.
R24 - Количество осадков - Количество выпавших осадков за 24 часа, мм.
S - Снежный покров - Высота снежного покрова, см. При наведении курсора мыши на число - состояние снежного покрова и степень покрытия местности в баллах.